Dewpoint
57 57 56 55 55 55 55 55 55 55 55 55 55 55 56 56 56 57 57 57 57 57 57 57 58 60 55 41 24 61 76 76 68 64 60 60 59 61 58 57 57 57 52 50 52 49 46
56 56 55 55 55 55 55 55 54 54 55 55 55 55 55 56 56 56 56 56 56 57 57 57 58 60 50 15 24 64 66 65 64 62 59 60 62 62 61 59 58 54 53 51 52 49 52
56 56 55 55 55 55 55 55 54 54 54 55 55 55 55 55 56 56 55 55 55 56 56 57 59 57 47 23 51 57 59 59 60 61 59 60 62 59 61 57 55 53 50 51 53 52 53
56 56 56 55 55 55 55 55 54 54 55 55 55 55 55 55 55 55 55 55 55 56 57 59 60 54 33 38 35 44 52 53 55 61 59 62 62 62 61 58 55 53 55 50 52 53 54
56 56 56 55 55 55 55 55 55 55 55 55 55 55 55 55 55 55 55 55 55 57 58 61 53 49 32 46 36 28 48 52 55 58 58 59 60 56 56 54 50 53 48 52 51 52 51
55 55 55 55 55 56 56 56 55 56 55 55 55 55 55 55 55 55 54 54 54 55 57 58 49 39 36 29 22 25 44 51 53 53 52 53 54 51 48 50 47 49 49 48 48 53 51
53 53 54 55 55 55 55 55 55 55 55 55 55 55 55 55 54 54 50 45 43 39 46 28 29 38 38 33 22 23 31 51 51 50 47 51 51 49 48 51 48 50 47 46 50 53 51
53 52 52 54 55 55 55 55 55 55 55 55 55 54 54 54 53 52 49 36 42 36 34 40 35 35 35 36 31 17 21 39 49 47 48 46 50 50 47 48 49 49 47 48 51 53 52
52 52 52 52 55 55 55 55 55 55 55 55 54 54 54 53 52 50 45 38 31 33 34 30 38 31 28 33 32 26 16 22 47 47 46 44 44 46 47 46 46 48 47 48 48 53 55
51 51 51 52 54 55 55 55 55 55 55 54 54 54 53 52 46 45 40 39 36 31 27 27 32 34 30 27 23 25 12 26 45 45 46 44 44 47 46 45 45 43 49 49 51 51 48
55 51 52 51 54 55 55 55 55 55 54 54 54 53 52 51 45 39 32 29 29 30 20 27 32 33 28 24 19 16 15 44 43 45 43 42 43 41 40 42 46 44 48 48 50 46 49
55 55 52 51 53 55 54 54 54 54 54 53 53 52 51 48 48 46 45 43 30 25 22 25 28 24 23 20 20 20 15 34 45 44 43 43 44 44 42 42 46 48 51 52 52 47 41
55 55 55 52 52 55 54 54 54 54 53 53 52 51 50 46 38 43 37 28 23 23 26 22 24 23 22 20 19 19 21 14 15 39 40 40 39 40 46 43 48 50 49 44 43 43 40
53 54 55 53 52 55 55 54 54 53 53 52 50 50 49 47 46 41 36 25 26 25 24 23 22 20 20 19 19 19 19 16 13 36 36 35 35 36 38 42 44 47 49 46 41 41 42
54 54 55 55 55 56 55 54 53 53 52 51 50 46 46 46 46 43 31 24 25 27 24 21 21 19 18 19 18 19 18 16 12 32 31 31 32 35 35 37 44 48 43 46 41 42 44
53 54 55 55 55 56 55 54 53 53 52 51 45 43 39 42 44 37 30 29 26 27 25 23 22 21 19 18 17 18 17 18 10 28 31 29 28 30 31 35 40 43 46 41 43 37 37
53 53 54 55 55 56 55 54 53 53 52 50 44 38 39 44 36 32 27 27 26 26 24 22 21 21 21 21 18 17 18 18 15 13 28 27 27 24 31 33 31 38 41 45 45 43 37
52 54 54 54 54 55 55 54 53 52 51 47 43 34 38 35 31 30 25 26 30 24 24 23 20 20 20 18 21 22 18 17 16 12 21 27 25 23 23 29 36 31 38 42 37 38 43
52 53 54 53 54 55 55 54 53 52 51 46 39 38 39 32 26 27 27 25 24 23 23 21 19 21 21 22 20 24 24 25 19 14 13 20 21 19 18 17 26 32 33 39 34 39 37
51 52 53 54 54 54 55 54 52 52 51 46 41 38 35 33 32 32 29 28 27 26 22 22 19 20 19 21 25 25 27 26 23 17 48 33 17 18 16 17 18 27 27 31 30 28 35
50 51 52 53 53 54 55 54 53 52 51 46 43 40 35 31 30 29 32 29 27 26 23 23 19 18 17 23 25 30 30 28 26 38 24 12 10 12 15 15 15 12 12 14 23 26 32
50 50 51 53 53 54 55 54 53 52 50 47 39 35 36 34 33 26 27 23 25 26 26 23 26 26 29 29 30 29 28 28 26 26 23 19 12 26 13 17 17 17 17 16 13 35 41
50 50 51 52 53 53 55 54 53 52 49 44 45 44 37 36 31 30 25 28 28 29 31 29 30 29 27 27 29 28 28 28 28 26 25 21 18 17 21 20 18 13 14 17 15 16 42
50 50 50 51 52 52 54 54 53 53 51 45 45 45 37 34 34 32 31 31 30 29 29 28 30 28 30 29 28 32 27 27 27 27 26 23 21 23 18 24 16 16 19 17 16 18 43
50 50 50 50 51 52 53 54 53 53 52 46 45 45 39 36 36 35 34 32 32 34 29 28 30 31 29 29 25 24 27 25 26 26 28 25 27 24 19 20 20 20 19 17 16 17 38
50 50 50 50 51 52 52 53 52 53 52 47 45 47 43 39 35 38 35 34 34 34 33 32 34 34 30 29 25 27 24 27 26 26 32 24 27 24 26 27 22 24 26 27 25 30 48
50 50 50 50 50 52 53 53 51 52 52 49 47 47 43 40 41 39 36 34 36 35 34 35 34 32 30 28 25 22 21 24 20 23 29 28 27 22 27 26 26 28 32 32 32 38 49
50 50 49 50 51 52 53 53 51 52 53 50 46 47 44 41 40 40 39 38 37 36 34 35 34 34 35 29 27 25 24 22 22 21 21 25 26 26 28 27 21 34 35 31 47 48 50
50 50 49 50 51 52 52 52 51 52 53 52 45 46 46 43 41 41 41 40 39 37 35 34 34 34 35 32 33 34 32 32 26 20 25 20 28 26 26 28 32 34 35 48 46 47 48
Lifted_Index
16 16 17 17 18 18 18 18 19 19 19 19 19 18 18 18 18 17 17 17 17 17 16 16 15 14 12 10 7 4 1 0 0 1 -0 -2 -2 -1 -1 -1 -2 -2 -2 -2 -2 -2 -1
16 16 17 17 18 18 18 18 19 19 19 19 19 18 18 18 18 18 17 17 17 17 17 16 15 14 12 10 8 5 3 2 2 1 0 -1 -2 -2 -2 -2 -2 -2 -2 -2 -2 -2 -2
15 15 16 17 17 18 18 18 18 19 19 19 19 18 18 18 18 18 18 17 17 17 17 16 15 13 11 10 8 6 5 4 3 2 0 -1 -2 -2 -2 -2 -2 -2 -2 -2 -2 -2 -2
13 14 14 15 16 17 17 18 18 18 18 18 18 18 18 18 18 18 18 17 17 17 16 15 14 12 10 10 9 6 5 4 3 1 -0 -1 -2 -2 -2 -2 -2 -2 -2 -2 -2 -2 -2
13 13 14 14 14 15 16 17 17 18 18 18 18 18 18 18 18 18 18 17 16 16 15 14 13 11 10 10 9 8 6 4 2 1 -0 -1 -1 -2 -2 -2 -2 -2 -2 -1 -2 -2 -1
15 15 14 14 14 14 14 15 16 16 17 17 17 18 18 18 18 18 17 16 15 14 13 12 12 11 10 9 9 9 7 4 2 1 -0 -1 -1 -1 -2 -2 -1 -1 -1 -2 -2 -1 -1
16 16 15 15 14 14 14 14 14 15 15 16 16 17 17 18 18 17 16 14 12 12 11 11 10 10 9 10 10 9 7 4 2 1 0 -0 -1 -2 -2 -2 -2 -1 -2 -2 -2 -2 -1
16 16 16 16 15 15 14 14 14 14 15 15 15 16 17 17 17 16 15 12 10 10 10 10 9 9 9 10 9 9 8 5 2 1 0 -0 -1 -2 -2 -2 -2 -1 -1 -2 -2 -2 -2
16 16 16 16 16 15 15 15 14 14 15 15 14 15 16 17 16 15 13 11 10 10 9 8 8 8 9 9 8 8 7 5 2 1 0 0 -0 -1 -2 -2 -2 -1 -1 -2 -2 -2 -2
16 16 16 16 16 16 15 15 15 14 14 14 14 14 15 16 15 13 11 11 11 9 7 6 7 8 8 8 8 7 7 5 2 1 0 0 -0 -0 -1 -2 -2 -1 -2 -2 -3 -2 -2
15 16 16 16 16 16 16 16 15 15 15 15 14 14 14 15 14 11 10 10 10 8 5 5 6 7 8 8 7 7 6 5 2 1 0 -0 -0 -1 -1 -2 -1 -2 -2 -2 -2 -2 -1
15 15 16 16 16 16 16 16 16 16 16 15 15 14 14 14 13 11 10 10 8 6 3 4 5 5 6 6 7 7 6 5 3 1 0 -0 -0 -1 -1 -1 -1 -2 -2 -2 -2 -2 -1
15 15 16 16 16 16 16 16 16 16 16 16 15 14 14 14 12 11 10 8 6 4 3 3 3 4 4 5 6 6 6 6 4 2 1 0 -0 -0 -1 -1 -1 -1 -2 -2 -1 -1 -1
15 15 15 16 16 15 16 16 16 16 16 16 15 14 13 13 13 11 9 7 4 3 3 4 4 3 4 4 5 6 6 6 5 4 2 1 0 -0 -0 -1 -1 -1 -2 -1 -1 -1 -2
15 15 15 15 15 15 15 16 16 16 16 15 14 13 13 12 12 11 8 5 3 3 3 4 4 3 3 3 4 5 5 5 5 4 3 2 1 0 -0 -0 -1 -1 -2 -1 -1 -1 -2
15 15 15 15 14 14 15 15 16 16 16 15 13 12 11 11 11 10 7 4 3 3 4 4 4 3 2 2 3 3 3 4 4 4 3 3 2 1 0 0 -0 -1 -1 -1 -1 -1 -1
15 15 15 15 14 14 14 15 16 16 16 14 12 9 9 9 9 9 6 4 3 3 4 4 4 3 2 2 2 2 2 2 3 3 3 2 2 1 1 1 0 -0 -1 -1 -1 -1 -1
15 15 15 15 14 14 14 15 16 16 15 13 10 8 7 8 9 8 6 5 4 4 4 4 4 4 3 2 2 3 2 2 2 2 2 2 1 1 1 1 1 0 -0 -1 -1 -1 -1
15 15 15 14 14 14 14 14 15 15 15 13 9 7 7 8 8 7 7 6 6 5 4 4 4 4 3 2 2 2 2 2 1 1 1 1 1 1 0 1 1 1 0 -0 -1 -1 -1
16 15 15 14 14 14 14 14 15 15 14 13 10 8 7 7 7 7 7 6 6 5 5 5 5 4 4 3 2 2 1 1 1 1 0 0 0 0 0 0 0 0 0 -0 -0 -0 -0
16 16 15 15 14 14 13 14 15 15 14 11 9 8 7 7 7 6 6 6 6 5 5 5 5 5 4 3 3 2 1 1 1 1 0 0 -0 -0 0 1 1 0 0 -0 -0 -0 -0
16 16 15 15 14 14 13 14 14 14 13 10 9 8 8 7 6 6 6 6 6 6 6 6 6 6 5 5 4 3 2 2 2 1 1 1 0 -0 -0 0 0 0 0 0 0 0 0
16 16 15 15 14 14 13 13 14 14 13 11 9 9 9 8 7 7 6 7 7 6 6 6 7 7 7 6 6 5 4 3 2 2 2 1 1 0 -0 -0 0 0 1 1 1 0 0
15 15 15 14 14 13 13 13 13 14 13 11 10 10 10 9 8 8 7 7 7 7 7 7 7 7 8 7 6 6 5 4 3 2 2 2 1 1 1 0 1 1 1 1 1 1 0
14 14 14 14 13 13 12 12 12 13 12 11 10 10 10 9 9 9 8 8 8 8 7 7 7 8 8 7 6 5 4 4 3 2 2 2 2 2 1 1 1 1 1 1 1 0 -0
13 13 13 13 13 12 12 12 12 12 12 10 10 10 10 9 9 9 8 8 8 7 7 7 7 7 7 7 6 4 4 3 3 2 2 2 2 2 1 1 1 2 2 1 1 -0 -1
11 11 11 11 11 11 10 11 11 11 11 10 9 9 9 9 9 8 8 8 7 7 7 7 6 6 6 6 6 5 4 4 4 3 2 2 2 1 1 1 1 2 2 1 -0 -1 -2
9 10 10 10 10 9 9 9 10 11 10 10 9 9 9 9 9 8 8 7 8 8 7 7 7 7 7 6 6 6 5 5 5 4 3 2 1 1 1 1 1 2 1 0 -1 -3 -3
8 8 9 9 9 8 8 8 9 10 10 10 9 9 9 9 9 8 8 7 8 8 7 7 7 7 7 7 7 7 6 6 5 4 4 3 2 1 1 1 1 1 1 -1 -2 -3 -3